Regional Weather Roundup
Issued by NWS

Home | Current Version | Previous Version | Text Only | Print | Product List | Glossary Off
Versions: 1 2 3 4 5 6 7 8 9 10 11 12 13 14 15 16 17 18 19 20 21 22 23 24 25 26 27 28 29 30 31 32 33 34 35 36 37 38 39 40 41 42 43 44 45 46 47 48 49 50

000
ASUS43 KDMX 240306
RWRIA

WEATHER ROUNDUP FOR IOWA
NATIONAL WEATHER SERVICE DES MOINES IA
1000 PM CDT FRI JUN 23 2017

NOTE: "FAIR" INDICATES FEW OR NO CLOUDS BELOW 12,000 FEET WITH NO
SIGNIFICANT WEATHER AND/OR OBSTRUCTIONS TO VISIBILITY.

* - THESE STATIONS ARE NOT NWS STATIONS...THUS NOT UNDER NWS
QUALITY CONTROL.  THEY ALSO DO NOT REPORT WEATHER SUCH
AS PRECIPITATION OR FOG.

IAZ001>003-012>014-020>022-031>034-043>046-240400-
   NORTHWEST IOWA

CITY           SKY/WX    TMP DP  RH WIND       PRES   REMARKS
CARROLL *      CLEAR     63  48  59 NW7       30.04R
CHEROKEE *     CLEAR     60  46  60 NW3       30.04R
DENISON *      PTCLDY    61  48  63 CALM      30.06R
LE MARS *      CLEAR     59  41  51 NW7       30.07R
ORANGE CITY *  CLEAR     57  43  58 NW7       30.06R
SHELDON *      CLEAR     59  46  63 W7        30.03R
SIOUX CITY     CLEAR     61  44  53 N8        30.06R
SPENCER        PTCLDY    54  49  83 NW7       30.03R
STORM LAKE *   PTCLDY    59  46  63 NW8       30.05R
$$

IAZ055>058-069>071-079>083-090>094-240400-
   SOUTHWEST IOWA

CITY           SKY/WX    TMP DP  RH WIND       PRES   REMARKS
ATLANTIC *     CLEAR     64  52  63 NW6       30.05R
AUDUBON *      CLEAR     63  50  63 NW5       30.06R
CLARINDA *       N/A     64  54  68 W5        30.08R
COUNCIL BLFS * CLEAR     64  50  59 NW6       30.06R
CRESTON *      MOCLDY    61  54  77 NW7       30.05R
HARLAN  *      PTCLDY    61  50  67 N3        30.08R
LAMONI         CLEAR     63  52  67 NW7       30.04R
RED OAK *      PTCLDY    64  54  68 NW5       30.06R
SHENANDOAH *   CLEAR     64  54  68 W3        30.07R
$$

IAZ047>049-059>061-072>074-084-240400-
   CENTRAL IOWA

CITY           SKY/WX    TMP DP  RH WIND       PRES   REMARKS
AMES           CLOUDY    67  51  56 NW12      30.00R
ANKENY *       MOCLDY    66  50  55 NW10      30.01R
BOONE *        CLOUDY    66  50  55 NW9G16    30.01R
CHARITON *     CLEAR     63  52  67 W7        30.01R
DES MOINES     MOCLDY    68  50  52 NW7       30.00R
GRINNELL*      CLEAR     63  53  70 W9        29.99R
KNOXVILLE *    CLEAR     63  52  67 NW7       29.99R
MARSHALLTOWN   CLOUDY    65  54  67 W12       29.97R
NEWTON *       CLEAR     63  54  72 W8        29.99R
PELLA *        CLEAR     65  52  63 NW8       30.00R
PERRY *        CLOUDY    66  50  56 NW5       30.02R
$$

IAZ004>006-015-016-023>025-035-036-240400-
   NORTH CENTRAL IOWA

CITY           SKY/WX    TMP DP  RH WIND       PRES   REMARKS
ALGONA *       CLEAR     59  50  72 W7        30.02R
CLARION *        N/A     61  54  77 NW10      30.00R
ESTHERVILLE    PTCLDY    56  51  84 W8        30.01R
FORT DODGE *   CLEAR     63  46  55 NW8       30.03R
MASON CITY     CLEAR     61  50  67 NW12      29.98R
FOREST CITY *    N/A     61  45  55 NW12G17   29.98R
WEBSTER CITY * MOCLDY    63  50  63 NW10G16   29.99R
IOWA FALLS *     N/A     62  54  76 W8        30.00R
$$

IAZ007>011-017>019-026>030-037>042-050>054-066-240400-
   NORTHEAST IOWA

CITY           SKY/WX    TMP DP  RH WIND       PRES   REMARKS
CEDAR RAPIDS   CLEAR     60  57  89 W7        29.92R
CHARLES CITY * CLEAR     63  55  77 W10       29.95R
CLINTON *      CLEAR     63  58  83 W10       29.90R
DECORAH *      CLOUDY    63  54  72 NW9G17    29.90R
DUBUQUE        CLEAR     64  54  69 W10       29.90R
MONTICELLO *   CLEAR     64  55  72 W8        29.90R
OELWEIN *      CLEAR     63  55  77 W10       29.94R
WATERLOO       CLOUDY    64  55  72 W6        29.94R
$$

IAZ064-065-067-068-078-240400-
   EAST CENTRAL IOWA

CITY           SKY/WX    TMP DP  RH WIND       PRES   REMARKS
DAVENPORT      CLEAR     64  56  75 NW10      29.91R
IOWA CITY      CLEAR     68  55  63 W8        29.94R
MT. PLEASANT * CLEAR     66  52  60 W6        29.95R
MUSCATINE *    CLEAR     66  54  63 NW9       29.93R
QUAD CITIES    CLEAR     69  54  58 NW12      29.90R
$$

IAZ062-063-075>077-085>089-095>099-240400-
   SOUTHEAST IOWA

CITY           SKY/WX    TMP DP  RH WIND       PRES   REMARKS
BURLINGTON     CLEAR     66  55  67 W3        29.94R
FAIRFIELD *    CLEAR     64  52  63 NW9       29.96R
FORT MADISON * CLEAR     66  55  68 NW7       29.96R
KEOKUK *       CLEAR     66  54  63 NW7       29.95R
OSKALOOSA *      N/A     62  54  75 W7        29.98R
CENTERVILLE *    N/A     64  55  72 CALM      30.02R
OTTUMWA        CLEAR     65  53  65 NW9       29.97R
WASHINGTON *   CLEAR     64  55  72 W7        29.96R
$$

ABBREVIATIONS USED IN REMARKS
   TC - TEMPERATURES IN CELSIUS
  WCI - WIND CHILL INDEX
   HX - HEAT INDEX
  VSB - VISIBILITY
$$




USA.gov is the U.S. government's official web portal to all federal, state and local government web resources and services.